Regional Weather Roundup
Issued by NWS

Home | Current Version | Previous Version | Text Only | Print | Product List | Glossary Off
Versions: 1 2 3 4 5 6 7 8 9 10 11 12 13 14 15 16 17 18 19 20 21 22 23 24 25 26 27 28 29 30 31 32 33 34 35 36 37 38 39 40 41 42 43 44 45 46 47 48 49 50

000
ASUS43 KLSX 270307
RWRMO

WEATHER SUMMARY FOR MISSOURI
NATIONAL WEATHER SERVICE SPRINGFIELD MO
1000 PM CDT MON SEP 26 2016

NOTE: "FAIR" INDICATES FEW OR NO CLOUDS BELOW 12,000 FEET WITH NO
       SIGNIFICANT WEATHER AND/OR OBSTRUCTIONS TO VISIBILITY.
       CURRENT SKY AND/OR WEATHER CONDITIONS ARE NOT AVAILABLE FOR
       CHILLICOTHE AND FARMINGTON.

MOZ001>031-035>038-043-044-053-054-270400-
...NORTHERN AND WESTERN MISSOURI...

CITY           SKY/WX    TMP DP  RH WIND       PRES   REMARKS
KANSAS CTY INT CLEAR     58  46  64 SW6       30.12S
KANSAS C DTWN  CLEAR     63  49  60 SW5       30.11F
LEE`S SUMMIT   CLEAR     59  48  67 SW7       30.13S
ST JOSEPH      CLEAR     57  51  80 S5        30.10S
CHILLICOTHE      N/A     55  50  83 CALM      30.10F
KIRKSVILLE     CLEAR     57  44  62 SW6       30.08S

$$
MOZ066>068-077>081-088>096-101>105-270400-
...SOUTHWEST MISSOURI...

CITY           SKY/WX    TMP DP  RH WIND       PRES   REMARKS
SPRINGFIELD    CLEAR     53  45  74 CALM      30.16S
JOPLIN         CLEAR     52  48  86 S3        30.18R
BRANSON        CLEAR     50  46  87 CALM      30.18S

$$
MOZ032>034-039>042-045>050-055>058-069>072-270400-
...CENTRAL MISSOURI...

CITY           SKY/WX    TMP DP  RH WIND       PRES   REMARKS
COLUMBIA       CLEAR     59  43  55 SW6       30.11F
JEFFERSON CITY CLEAR     55  50  83 CALM      30.12S
ROLLA          CLEAR     55  44  66 W7        30.13R
SEDALIA        CLEAR     59  45  59 SW7       30.13F
WHITEMAN AFB   CLEAR     56  47  71 SW7       30.12S
OSAGE BEACH    CLEAR     52  50  93 CALM      30.15

$$
MOZ051-052-059>065-270400-
...EAST CENTRAL MISSOURI...

CITY           SKY/WX    TMP DP  RH WIND       PRES   REMARKS
ST LOUIS INTL  CLEAR     62  44  51 SW7       30.10S
SPIRIT OF STL  CLEAR     54  51  90 CALM      30.10S
ST CHARLES     CLEAR     57  47  69 SW5       30.09S

$$
MOZ072>076-082>087-097>100-106>115-270400-
...SOUTH CENTRAL AND SOUTHEAST MISSOURI...

CITY           SKY/WX    TMP DP  RH WIND       PRES   REMARKS
CAPE GIRARDEAU CLEAR     53  50  89 CALM      30.11S
FARMINGTON     CLEAR     53  50  89 CALM      30.14S
POPLAR BLUFF   CLEAR     57  54  89 CALM      30.12S
WEST PLAINS    CLEAR     53  46  77 CALM      30.17R

$$



USA.gov is the U.S. government's official web portal to all federal, state and local government web resources and services.